This demonstration page uses our WeatherBlox Daily Observations layout. Learn more.

39.92423, -83.80882

Hourly Observations for July 13, 2016

Temp ( °F °C ) Dew Point ( °F °C ) Humidity (%) Winds ( mph kmh ) Pressure ( in mb ) Visibility ( mi km ) Precip ( " mm )
12:58 am 00:58 Clear 75 23.9 72 22.1 90 90 SSW 9 15 29.99 1016 10 16.0934 0 0
1:58 am 01:58 Clear 74 23.6 72 22.3 92 92 SSW 8 13 29.99 1016 10 16.0934 0 0
2:58 am 02:58 Partly Cloudy 74 23.3 73 22.5 95 95 SW 5 7 29.99 1016 10 16.0934 0 0
3:58 am 03:58 Partly Cloudy 73 23 73 23 100 100 SSW 7 11 29.99 1016 10 16.0934 0 0
4:55 am 04:55 Mostly Clear 72 22.4 72 22.4 100 100 SSW 6 9 29.99 1016 7 11.26538 0 0
5:55 am 05:55 Mostly Clear 72 22 72 22 100 100 S 6 9 30 1016 7 11.26538 0 0
6:55 am 06:55 Mostly Sunny 72 22 72 22 100 100 SSE 3 6 30.01 1016 7 11.26538 0 0
7:07 am 07:07 Mostly Sunny 72 22 72 22 100 100 SSE 3 6 30 1016 7 11.26538 0 0
7:48 am 07:48 Mostly Cloudy 75 24 73 23 94 94 S 3 6 30 1016 10 16.0934 0 0
7:58 am 07:58 Mostly Cloudy 75 24.1 74 23.5 96 96 SSW 5 7 30.01 1016 10 16.0934 0 0
8:18 am 08:18 Partly Cloudy 77 25 73 23 89 89 SW 6 9 30 1016 10 16.0934 0 0
8:58 am 08:58 Mostly Sunny 79 25.9 73 22.8 83 83 SW 8 13 30.02 1017 10 16.0934 0 0
9:58 am 09:58 Mostly Cloudy 80 26.7 74 23.3 82 82 WSW 8 13 30.03 1017 10 16.0934 0 0
10:58 am 10:58 Mostly Cloudy 81 27.4 74 23.2 78 78 WSW 8 13 30.03 1017 10 16.0934 0 0
11:58 am 11:58 Partly Cloudy 84 29 74 23.3 71 71 SW 10 17 30.02 1017 10 16.0934 0 0
12:58 pm 12:58 Partly Cloudy 87 30.4 74 23.1 65 65 WSW 13 20 30 1016 10 16.0934 0 0
1:58 pm 13:58 Mostly Sunny 89 31.5 73 22.5 59 59 WSW 14 22 30 1016 10 16.0934 0 0
2:25 pm 14:25 Mostly Sunny 90 32 72 22 55 55 SW 18 30 29.94 1014 10 16.0934 0 0
2:30 pm 14:30 Sunny 90 32 72 22 55 55 W 15 24 29.94 1014 10 16.0934 0 0
2:58 pm 14:58 Partly Cloudy 89 31.9 71 21.8 55 55 WSW 13 20 29.98 1015 10 16.0934 0 0
4:58 pm 16:58 Sunny 92 33.6 72 22.1 51 51 WSW 13 20 29.88 1012 10 16.0934 0 0
5:58 pm 17:58 Mostly Sunny 92 33.4 72 22 51 51 SSW 12 19 29.85 1011 10 16.0934 0 0
6:58 pm 18:58 Partly Cloudy 89 31.6 69 20.8 53 53 SW 14 22 29.91 1013 10 16.0934 0 0
7:43 pm 19:43 Cloudy with Nearby Thunderstorms 86 30 70 21 59 59 W 16 26 29.88 1012 10 16.0934 0 0
7:58 pm 19:58 Mostly Cloudy with Thunderstorms 82 27.5 64 18 56 56 W 28 44 29.91 1013 10 16.0934 0 0
8:13 pm 20:13 Mostly Cloudy with Light Thunderstorms 75 24 68 20 78 78 NNW 10 17 29.91 1013 10 16.0934 0 0
8:20 pm 20:20 Cloudy 73 23 70 21 89 89 NW 3 6 29.91 1013 10 16.0934 0 0
8:58 pm 20:58 Mostly Cloudy 72 22.3 69 20.6 90 90 W 1 2 29.93 1014 10 16.0934 0 0.0254
9:21 pm 21:21 Windy with Storms Likely 73 23 70 21 89 89 W 24 39 29.94 1014 10 16.0934 0 0
9:28 pm 21:28 Cloudy with Heavy Thunderstorms 73 23 68 20 83 83 W 22 35 29.97 1015 1.5 2.41401 0 0
9:36 pm 21:36 Cloudy with Thunderstorms 70 21 68 20 94 94 W 13 20 29.94 1014 10 16.0934 0 0
9:46 pm 21:46 Cloudy with Light Thunderstorms 70 21 68 20 94 94 W 10 17 29.94 1014 10 16.0934 0 0
9:58 pm 21:58 Cloudy with Light Thunderstorms 70 21.2 67 19.5 90 90 WSW 8 13 29.98 1015 10 16.0934 0.23 5.842
10:06 pm 22:06 Cloudy with Light Rain 70 21 66 19 88 88 WSW 7 11 29.97 1015 9 14.48406 0 0
10:30 pm 22:30 Cloudy with Light Thunderstorms 70 21 68 20 94 94 SSW 3 6 29.97 1015 9 14.48406 0 0
10:39 pm 22:39 Windy with Storms Likely 70 21 70 21 100 100 WSW 20 31 30 1016 8 12.87472 0 0
10:58 pm 22:58 Cloudy with Light Thunderstorms 70 21.3 69 20.8 97 97 SW 13 20 29.99 1016 10 16.0934 0.1 2.54
11:06 pm 23:06 Clear 70 21 70 21 100 100 SSW 8 13 29.94 1014 10 16.0934 0 0
11:16 pm 23:16 Cloudy with Light Rain 70 21 70 21 100 100 S 7 11 29.94 1014 10 16.0934 0 0
11:58 pm 23:58 Cloudy 69 20.8 69 20.7 99 99 S 6 9 29.91 1013 10 16.0934 0.05 1.27

Powered by AerisWeather